Location: Ferchesar
(52.6477°N, 12.4298°E)
Time: 05:00:16
(UTC+02:00)

Vanguard 3 - Pass Details

Date: 01 March 2021
Orbit: 508 x 3262 km, 33.3° (Epoch: 15 April)

Event Time Altitude Azimuth Distance (km) Brightness Sun altitude
Rises 16:15:20 0° 228° (SW) 7,157 13.8 12.4°
Reaches altitude 10° 16:21:22 10° 219° (SW) 5,943 13.1 11.7°
Maximum altitude 16:34:51 29° 170° (S) 3,775 10.8 9.8°
Drops below altitude 10° 16:44:25 10° 117° (ESE) 4,167 10.4 8.5°
Sets 16:47:44 0° 106° (ESE) 4,783 10.6 8.1°
